Location: ???????
(55.4362°N, 38.1183°E)
Time: 01:23:45
(UTC+00:00)

METEOR M2 - Pass Details

Date: 04 December 2021
Orbit: 818 x 827 km, 98.4° (Epoch: 28 January)

Event Time Altitude Azimuth Distance (km) Brightness Sun altitude
Rises 04:29:08 0° 18° (NNE) 3,373 ? -8.7°
Reaches altitude 10° 04:31:37 10° 25° (NNE) 2,434 ? -8.4°
Maximum altitude 04:36:46 44° 98° (E) 1,131 ? -7.7°
Drops below altitude 10° 04:41:51 10° 170° (S) 2,413 ? -7.1°
Sets 04:44:18 0° 177° (S) 3,340 ? -6.8°
